Time,TemperatureF,DewpointF,PressureIn,WindDirection,WindDirectionDegrees,WindSpeedMPH,WindSpeedGustMPH,Humidity,HourlyPrecipIn,Conditions,Clouds,dailyrainin,SoftwareType,DateUTC
2013-08-03 00:02:00,61.3,53.7,29.05,NW,315,1.1,1.1,76,0.00,CLR,,0.00,WeatherDisplay:10.37,2013-08-03 05:02:00,
2013-08-03 00:07:00,61.0,53.7,29.05,NW,315,1.1,1.1,77,0.00,CLR,,0.00,WeatherDisplay:10.37,2013-08-03 05:07:00,
2013-08-03 00:12:00,60.8,53.9,29.06,North,0,3.5,3.5,78,0.00,CLR,,0.00,WeatherDisplay:10.37,2013-08-03 05:12:00,
2013-08-03 00:17:00,60.8,53.9,29.05,NW,315,1.1,0.0,78,0.00,CLR,,0.00,WeatherDisplay:10.37,2013-08-03 05:17:00,
2013-08-03 00:22:00,61.5,54.2,29.06,NNW,338,1.1,1.1,77,0.00,CLR,,0.00,WeatherDisplay:10.37,2013-08-03 05:22:00,
2013-08-03 00:27:00,61.9,54.6,29.06,North,0,1.1,1.1,77,0.00,CLR,,0.00,WeatherDisplay:10.37,2013-08-03 05:27:00,
2013-08-03 00:32:00,61.7,54.1,29.06,NNW,338,2.3,2.3,76,0.00,CLR,,0.00,WeatherDisplay:10.37,2013-08-03 05:32:00,
2013-08-03 00:37:00,61.0,53.7,29.06,NW,315,1.1,1.1,77,0.00,CLR,,0.00,WeatherDisplay:10.37,2013-08-03 05:37:00,
2013-08-03 00:42:00,60.4,53.5,29.06,North,0,1.1,1.1,78,0.00,CLR,,0.00,WeatherDisplay:10.37,2013-08-03 05:42:00,
2013-08-03 00:47:00,59.9,53.7,29.06,North,0,2.3,2.3,80,0.00,CLR,,0.00,WeatherDisplay:10.37,2013-08-03 05:47:00,
2013-08-03 00:52:00,59.5,53.7,29.06,North,0,1.1,1.1,81,0.00,CLR,,0.00,WeatherDisplay:10.37,2013-08-03 05:52:00,
2013-08-03 00:57:00,59.4,53.5,29.06,NW,315,2.3,2.3,81,0.00,CLR,,0.00,WeatherDisplay:10.37,2013-08-03 05:57:00,
2013-08-03 01:02:00,59.4,53.9,29.06,North,0,3.5,3.5,82,0.00,CLR,,0.00,WeatherDisplay:10.37,2013-08-03 06:02:00,
2013-08-03 01:07:00,59.4,53.9,29.06,North,0,3.5,3.5,82,0.00,CLR,,0.00,WeatherDisplay:10.37,2013-08-03 06:07:00,
2013-08-03 01:12:00,59.0,53.5,29.06,North,0,2.3,2.3,82,0.00,CLR,,0.00,WeatherDisplay:10.37,2013-08-03 06:12:00,
2013-08-03 01:17:00,59.0,53.8,29.07,NW,315,3.5,3.5,83,0.00,CLR,,0.00,WeatherDisplay:10.37,2013-08-03 06:17:00,
2013-08-03 01:23:00,59.0,53.8,29.06,North,0,3.5,3.5,83,0.00,CLR,,0.00,WeatherDisplay:10.37,2013-08-03 06:23:00,
2013-08-03 01:28:00,59.0,53.8,29.07,NW,315,3.5,3.5,83,0.00,CLR,,0.00,WeatherDisplay:10.37,2013-08-03 06:28:00,
2013-08-03 01:32:00,59.0,53.8,29.06,North,0,6.0,6.0,83,0.00,CLR,,0.00,WeatherDisplay:10.37,2013-08-03 06:32:00,
2013-08-03 01:37:00,59.2,53.7,29.07,NW,315,2.3,2.3,82,0.00,CLR,,0.00,WeatherDisplay:10.37,2013-08-03 06:37:00,
2013-08-03 01:43:00,59.0,53.5,29.07,North,0,2.3,2.3,82,0.00,CLR,,0.00,WeatherDisplay:10.37,2013-08-03 06:43:00,
2013-08-03 01:48:00,58.8,53.7,29.08,North,0,2.3,2.3,83,0.00,CLR,,0.00,WeatherDisplay:10.37,2013-08-03 06:48:00,
2013-08-03 01:53:00,58.6,53.5,29.07,North,0,2.3,2.3,83,0.00,CLR,,0.00,WeatherDisplay:10.37,2013-08-03 06:53:00,
2013-08-03 01:58:00,58.5,53.6,29.07,North,0,2.3,2.3,84,0.00,CLR,,0.00,WeatherDisplay:10.37,2013-08-03 06:58:00,
2013-08-03 02:03:00,58.6,54.1,29.08,NE,45,3.5,3.5,85,0.00,CLR,,0.00,WeatherDisplay:10.37,2013-08-03 07:03:00,
2013-08-03 02:08:00,58.8,54.0,29.07,North,0,4.6,4.6,84,0.00,CLR,,0.00,WeatherDisplay:10.37,2013-08-03 07:08:00,
2013-08-03 02:13:00,59.0,54.2,29.07,NE,45,3.5,3.5,84,0.00,CLR,,0.00,WeatherDisplay:10.37,2013-08-03 07:13:00,
2013-08-03 02:18:00,59.2,54.3,29.07,North,0,4.6,4.6,84,0.00,CLR,,0.00,WeatherDisplay:10.37,2013-08-03 07:18:00,
2013-08-03 02:23:00,59.2,54.0,29.07,NNW,338,3.5,3.5,83,0.00,CLR,,0.00,WeatherDisplay:10.37,2013-08-03 07:23:00,
2013-08-03 02:28:00,59.2,53.7,29.08,North,0,3.5,3.5,82,0.00,CLR,,0.00,WeatherDisplay:10.37,2013-08-03 07:28:00,
2013-08-03 02:33:00,59.0,53.5,29.08,NW,315,1.1,0.0,82,0.00,CLR,,0.00,WeatherDisplay:10.37,2013-08-03 07:33:00,
2013-08-03 02:38:00,59.0,53.5,29.07,NE,45,1.1,0.0,82,0.00,CLR,,0.00,WeatherDisplay:10.37,2013-08-03 07:38:00,
2013-08-03 02:43:00,58.8,53.7,29.07,North,0,1.1,0.0,83,0.00,CLR,,0.00,WeatherDisplay:10.37,2013-08-03 07:43:00,
2013-08-03 02:48:00,58.6,53.5,29.07,North,0,2.3,2.3,83,0.00,CLR,,0.00,WeatherDisplay:10.37,2013-08-03 07:48:00,
2013-08-03 02:53:00,58.6,53.2,29.08,North,0,2.3,2.3,82,0.00,CLR,,0.00,WeatherDisplay:10.37,2013-08-03 07:53:00,
2013-08-03 02:58:00,58.8,53.3,29.08,West,270,1.1,1.1,82,0.00,CLR,,0.00,WeatherDisplay:10.37,2013-08-03 07:58:00,
2013-08-03 03:02:00,59.0,53.5,29.08,NW,315,2.3,2.3,82,0.00,CLR,,0.00,WeatherDisplay:10.37,2013-08-03 08:02:00,
2013-08-03 03:07:00,59.0,53.5,29.08,NW,315,2.3,2.3,82,0.00,CLR,,0.00,WeatherDisplay:10.37,2013-08-03 08:07:00,
2013-08-03 03:13:00,58.3,53.5,29.08,North,0,3.5,3.5,84,0.00,CLR,,0.00,WeatherDisplay:10.37,2013-08-03 08:13:00,
2013-08-03 03:18:00,58.1,53.3,29.08,North,0,2.3,2.3,84,0.00,CLR,,0.00,WeatherDisplay:10.37,2013-08-03 08:18:00,
2013-08-03 03:23:00,57.9,53.4,29.08,North,0,3.5,3.5,85,0.00,CLR,,0.00,WeatherDisplay:10.37,2013-08-03 08:23:00,
2013-08-03 03:28:00,57.7,53.3,29.08,North,0,1.1,0.0,85,0.00,CLR,,0.00,WeatherDisplay:10.37,2013-08-03 08:28:00,
2013-08-03 03:33:00,57.6,53.1,29.08,NW,315,1.1,0.0,85,0.00,CLR,,0.00,WeatherDisplay:10.37,2013-08-03 08:33:00,
2013-08-03 03:38:00,57.4,53.2,29.08,West,270,1.6,1.6,86,0.00,CLR,,0.00,WeatherDisplay:10.37,2013-08-03 08:38:00,
2013-08-03 03:43:00,57.6,53.4,29.08,NW,315,2.3,2.3,86,0.00,CLR,,0.00,WeatherDisplay:10.37,2013-08-03 08:43:00,
2013-08-03 03:48:00,57.6,53.4,29.08,NW,315,1.1,0.0,86,0.00,CLR,,0.00,WeatherDisplay:10.37,2013-08-03 08:48:00,
2013-08-03 03:52:00,57.6,53.4,29.08,NW,315,2.3,2.3,86,0.00,CLR,,0.00,WeatherDisplay:10.37,2013-08-03 08:52:00,
2013-08-03 03:58:00,57.4,53.9,29.08,North,0,3.5,3.5,88,0.00,CLR,,0.00,WeatherDisplay:10.37,2013-08-03 08:58:00,
2013-08-03 04:03:00,57.2,53.7,29.09,North,0,2.3,2.3,88,0.00,CLR,,0.00,WeatherDisplay:10.37,2013-08-03 09:03:00,
2013-08-03 04:08:00,57.2,53.7,29.08,North,0,2.3,2.3,88,0.00,CLR,,0.00,WeatherDisplay:10.37,2013-08-03 09:08:00,
2013-08-03 04:13:00,56.3,53.4,29.09,North,0,2.3,2.3,90,0.00,CLR,,0.00,WeatherDisplay:10.37,2013-08-03 09:13:00,
2013-08-03 04:18:00,56.1,53.5,29.09,NE,45,1.1,1.1,91,0.00,CLR,,0.00,WeatherDisplay:10.37,2013-08-03 09:18:00,
2013-08-03 04:23:00,55.9,53.4,29.09,North,0,1.1,0.0,91,0.00,CLR,,0.00,WeatherDisplay:10.37,2013-08-03 09:23:00,
2013-08-03 04:28:00,55.6,53.0,29.09,NW,315,1.6,1.6,91,0.00,CLR,,0.00,WeatherDisplay:10.37,2013-08-03 09:28:00,
2013-08-03 04:32:00,55.4,53.1,29.10,NW,315,1.1,1.1,92,0.00,CLR,,0.00,WeatherDisplay:10.37,2013-08-03 09:32:00,
2013-08-03 04:38:00,55.4,53.4,29.09,North,0,2.3,2.3,93,0.00,CLR,,0.00,WeatherDisplay:10.37,2013-08-03 09:38:00,
2013-08-03 04:43:00,55.4,53.4,29.10,North,0,1.1,1.1,93,0.00,CLR,,0.00,WeatherDisplay:10.37,2013-08-03 09:43:00,
2013-08-03 04:48:00,55.2,53.2,29.10,North,0,1.1,1.1,93,0.00,CLR,,0.00,WeatherDisplay:10.37,2013-08-03 09:48:00,
2013-08-03 04:53:00,54.9,52.9,29.10,North,0,1.1,0.0,93,0.00,CLR,,0.00,WeatherDisplay:10.37,2013-08-03 09:53:00,
2013-08-03 04:58:00,54.7,52.7,29.10,North,0,1.1,0.0,93,0.00,CLR,,0.00,WeatherDisplay:10.37,2013-08-03 09:58:00,
2013-08-03 05:03:00,54.5,52.5,29.10,North,0,1.1,0.0,93,0.00,CLR,,0.00,WeatherDisplay:10.37,2013-08-03 10:03:00,
2013-08-03 05:07:00,54.3,52.3,29.10,North,0,1.1,0.0,93,0.00,CLR,,0.00,WeatherDisplay:10.37,2013-08-03 10:07:00,
2013-08-03 05:13:00,54.3,52.6,29.10,North,0,1.1,0.0,94,0.00,CLR,,0.00,WeatherDisplay:10.37,2013-08-03 10:13:00,
2013-08-03 05:18:00,54.3,52.6,29.10,North,0,1.6,0.0,94,0.00,CLR,,0.00,WeatherDisplay:10.37,2013-08-03 10:18:00,
2013-08-03 05:23:00,54.3,52.6,29.11,North,0,1.1,1.1,94,0.00,CLR,,0.00,WeatherDisplay:10.37,2013-08-03 10:23:00,
2013-08-03 05:28:00,54.1,52.5,29.10,NE,45,1.1,1.1,94,0.00,CLR,,0.00,WeatherDisplay:10.37,2013-08-03 10:28:00,
2013-08-03 05:33:00,54.1,52.7,29.10,NE,45,1.1,0.0,95,0.00,CLR,,0.00,WeatherDisplay:10.37,2013-08-03 10:33:00,
2013-08-03 05:37:00,54.1,52.7,29.11,North,0,1.1,0.0,95,0.00,CLR,,0.00,WeatherDisplay:10.37,2013-08-03 10:37:00,
2013-08-03 05:43:00,54.0,52.6,29.11,NE,45,1.1,0.0,95,0.00,CLR,,0.00,WeatherDisplay:10.37,2013-08-03 10:43:00,
2013-08-03 05:48:00,54.0,52.6,29.11,North,0,1.1,1.1,95,0.00,CLR,,0.00,WeatherDisplay:10.37,2013-08-03 10:48:00,
2013-08-03 05:53:00,53.6,52.2,29.11,North,0,1.1,0.0,95,0.00,CLR,,0.00,WeatherDisplay:10.37,2013-08-03 10:53:00,
2013-08-03 05:58:00,53.6,52.2,29.12,North,0,1.1,0.0,95,0.00,CLR,,0.00,WeatherDisplay:10.37,2013-08-03 10:58:00,
2013-08-03 06:03:00,53.4,52.0,29.11,North,0,1.1,0.0,95,0.00,CLR,,0.00,WeatherDisplay:10.37,2013-08-03 11:03:00,
2013-08-03 06:08:00,53.2,51.8,29.12,NE,45,1.1,0.0,95,0.00,CLR,,0.00,WeatherDisplay:10.37,2013-08-03 11:08:00,
2013-08-03 06:13:00,53.4,52.0,29.11,NE,45,1.1,0.0,95,0.00,CLR,,0.00,WeatherDisplay:10.37,2013-08-03 11:13:00,
2013-08-03 06:18:00,53.2,51.8,29.12,North,0,1.1,0.0,95,0.00,CLR,,0.00,WeatherDisplay:10.37,2013-08-03 11:18:00,
2013-08-03 06:23:00,53.2,51.8,29.12,North,0,1.1,0.0,95,0.00,CLR,,0.00,WeatherDisplay:10.37,2013-08-03 11:23:00,
2013-08-03 06:28:00,53.2,51.8,29.12,North,0,1.6,1.6,95,0.00,CLR,,0.00,WeatherDisplay:10.37,2013-08-03 11:28:00,
2013-08-03 06:33:00,54.5,53.4,29.12,North,0,1.1,1.1,96,0.00,CLR,,0.00,WeatherDisplay:10.37,2013-08-03 11:33:00,
2013-08-03 06:38:00,56.1,55.3,29.12,North,0,1.1,0.0,97,0.00,CLR,,0.00,WeatherDisplay:10.37,2013-08-03 11:38:00,
2013-08-03 06:43:00,58.3,56.9,29.12,North,0,1.1,1.1,95,0.00,CLR,,0.00,WeatherDisplay:10.37,2013-08-03 11:43:00,
2013-08-03 06:48:00,59.5,56.6,29.13,North,0,1.1,1.1,90,0.00,CLR,,0.00,WeatherDisplay:10.37,2013-08-03 11:48:00,
2013-08-03 06:53:00,60.6,55.4,29.12,NE,45,1.6,0.0,83,0.00,CLR,,0.00,WeatherDisplay:10.37,2013-08-03 11:53:00,
2013-08-03 06:58:00,61.5,55.6,29.12,NE,45,1.1,0.0,81,0.00,CLR,,0.00,WeatherDisplay:10.37,2013-08-03 11:58:00,
2013-08-03 07:03:00,62.6,56.0,29.12,NE,45,1.1,0.0,79,0.00,CLR,,0.00,WeatherDisplay:10.37,2013-08-03 12:03:00,
2013-08-03 07:08:00,64.0,56.0,29.13,NE,45,1.1,1.1,75,0.00,CLR,,0.00,WeatherDisplay:10.37,2013-08-03 12:08:00,
2013-08-03 07:13:00,65.3,56.8,29.12,NE,45,1.1,0.0,74,0.00,CLR,,0.00,WeatherDisplay:10.37,2013-08-03 12:13:00,
2013-08-03 07:18:00,66.7,56.2,29.12,North,0,1.1,1.1,69,0.00,CLR,,0.00,WeatherDisplay:10.37,2013-08-03 12:18:00,
2013-08-03 07:23:00,67.8,57.3,29.13,North,0,1.1,0.0,69,0.00,CLR,,0.00,WeatherDisplay:10.37,2013-08-03 12:23:00,
2013-08-03 07:28:00,68.5,55.4,29.13,North,0,2.3,2.3,63,0.00,CLR,,0.00,WeatherDisplay:10.37,2013-08-03 12:28:00,
2013-08-03 07:33:00,68.5,55.9,29.13,North,0,2.3,2.3,64,0.00,CLR,,0.00,WeatherDisplay:10.37,2013-08-03 12:33:00,
2013-08-03 07:38:00,68.0,55.8,29.13,West,270,3.5,0.0,65,0.00,CLR,,0.00,WeatherDisplay:10.37,2013-08-03 12:38:00,
2013-08-03 07:43:00,68.4,57.4,29.13,West,270,2.3,0.0,68,0.00,CLR,,0.00,WeatherDisplay:10.37,2013-08-03 12:43:00,
2013-08-03 07:48:00,69.8,57.5,29.13,North,0,2.3,2.3,65,0.00,CLR,,0.00,WeatherDisplay:10.37,2013-08-03 12:48:00,
2013-08-03 07:53:00,71.1,56.5,29.13,North,0,2.3,2.3,60,0.00,CLR,,0.00,WeatherDisplay:10.37,2013-08-03 12:53:00,
2013-08-03 07:58:00,71.6,56.0,29.13,North,0,1.1,1.6,58,0.00,CLR,,0.00,WeatherDisplay:10.37,2013-08-03 12:58:00,
2013-08-03 08:03:00,71.2,54.7,29.13,North,0,3.5,3.5,56,0.00,CLR,,0.00,WeatherDisplay:10.37,2013-08-03 13:03:00,
2013-08-03 08:08:00,71.4,55.4,29.13,NE,45,1.1,1.6,57,0.00,CLR,,0.00,WeatherDisplay:10.37,2013-08-03 13:08:00,
2013-08-03 08:13:00,71.1,54.6,29.14,WNW,292,3.5,3.5,56,0.00,CLR,,0.00,WeatherDisplay:10.37,2013-08-03 13:13:00,
2013-08-03 08:18:00,71.1,55.5,29.14,East,90,2.3,2.3,58,0.00,CLR,,0.00,WeatherDisplay:10.37,2013-08-03 13:18:00,
2013-08-03 08:23:00,72.1,57.0,29.14,North,0,1.1,1.1,59,0.00,CLR,,0.00,WeatherDisplay:10.37,2013-08-03 13:23:00,
2013-08-03 08:28:00,72.0,55.4,29.14,North,0,3.5,3.5,56,0.00,CLR,,0.00,WeatherDisplay:10.37,2013-08-03 13:28:00,
2013-08-03 08:33:00,71.4,54.9,29.13,North,0,3.5,3.5,56,0.00,CLR,,0.00,WeatherDisplay:10.37,2013-08-03 13:33:00,
2013-08-03 08:38:00,70.7,54.7,29.13,North,0,5.8,5.8,57,0.00,CLR,,0.00,WeatherDisplay:10.37,2013-08-03 13:38:00,
2013-08-03 08:43:00,71.8,55.7,29.14,South,180,3.5,0.0,57,0.00,CLR,,0.00,WeatherDisplay:10.37,2013-08-03 13:43:00,
2013-08-03 08:48:00,72.7,55.6,29.14,NW,315,4.6,4.6,55,0.00,CLR,,0.00,WeatherDisplay:10.37,2013-08-03 13:48:00,
2013-08-03 08:53:00,72.9,55.7,29.14,NW,315,2.3,2.3,55,0.00,CLR,,0.00,WeatherDisplay:10.37,2013-08-03 13:53:00,
2013-08-03 08:58:00,73.4,55.7,29.15,WNW,292,3.5,3.5,54,0.00,CLR,,0.00,WeatherDisplay:10.37,2013-08-03 13:58:00,
2013-08-03 09:03:00,73.8,56.6,29.15,West,270,3.5,3.5,55,0.00,CLR,,0.00,WeatherDisplay:10.37,2013-08-03 14:03:00,
2013-08-03 09:08:00,72.1,56.1,29.15,West,270,2.3,2.3,57,0.00,CLR,,0.00,WeatherDisplay:10.37,2013-08-03 14:08:00,
2013-08-03 09:13:00,72.9,56.7,29.15,East,90,3.5,3.5,57,0.00,CLR,,0.00,WeatherDisplay:10.37,2013-08-03 14:13:00,
2013-08-03 09:18:00,72.3,55.7,29.15,NW,315,3.5,3.5,56,0.00,CLR,,0.00,WeatherDisplay:10.37,2013-08-03 14:18:00,
2013-08-03 09:23:00,72.0,55.9,29.15,West,270,3.5,0.0,57,0.00,CLR,,0.00,WeatherDisplay:10.37,2013-08-03 14:23:00,
2013-08-03 09:28:00,72.7,56.6,29.15,SW,225,3.5,3.5,57,0.00,CLR,,0.00,WeatherDisplay:10.37,2013-08-03 14:28:00,
2013-08-03 09:33:00,73.4,54.2,29.15,North,0,6.9,6.9,51,0.00,CLR,,0.00,WeatherDisplay:10.37,2013-08-03 14:33:00,
2013-08-03 09:38:00,72.5,53.3,29.15,North,0,9.2,9.2,51,0.00,CLR,,0.00,WeatherDisplay:10.37,2013-08-03 14:38:00,
2013-08-03 09:43:00,72.7,54.6,29.15,North,0,3.5,3.5,53,0.00,CLR,,0.00,WeatherDisplay:10.37,2013-08-03 14:43:00,
2013-08-03 09:48:00,73.4,54.2,29.16,SE,135,5.8,5.8,51,0.00,CLR,,0.00,WeatherDisplay:10.37,2013-08-03 14:48:00,
2013-08-03 09:53:00,73.4,54.2,29.15,SE,135,2.3,2.3,51,0.00,CLR,,0.00,WeatherDisplay:10.37,2013-08-03 14:53:00,
2013-08-03 09:58:00,75.6,54.5,29.15,NE,45,3.5,3.5,48,0.00,CLR,,0.00,WeatherDisplay:10.37,2013-08-03 14:58:00,
2013-08-03 10:03:00,74.3,52.2,29.16,North,0,5.8,5.8,46,0.00,CLR,,0.00,WeatherDisplay:10.37,2013-08-03 15:03:00,
2013-08-03 10:08:00,74.8,53.3,29.16,NE,45,5.8,5.8,47,0.00,CLR,,0.00,WeatherDisplay:10.37,2013-08-03 15:08:00,
2013-08-03 10:13:00,76.8,54.5,29.16,West,270,3.5,3.5,46,0.00,CLR,,0.00,WeatherDisplay:10.37,2013-08-03 15:13:00,
2013-08-03 10:18:00,76.5,53.5,29.15,North,0,5.8,5.8,45,0.00,CLR,,0.00,WeatherDisplay:10.37,2013-08-03 15:18:00,
2013-08-03 10:23:00,76.6,53.1,29.15,NW,315,6.9,6.9,44,0.00,CLR,,0.00,WeatherDisplay:10.37,2013-08-03 15:23:00,
2013-08-03 10:28:00,75.6,51.5,29.15,North,0,12.7,12.7,43,0.00,CLR,,0.00,WeatherDisplay:10.37,2013-08-03 15:28:00,
2013-08-03 10:33:00,75.9,52.4,29.15,East,90,4.6,4.6,44,0.00,CLR,,0.00,WeatherDisplay:10.37,2013-08-03 15:33:00,
2013-08-03 10:38:00,75.2,51.2,29.16,NE,45,8.1,8.1,43,0.00,CLR,,0.00,WeatherDisplay:10.37,2013-08-03 15:38:00,
2013-08-03 10:43:00,75.6,52.7,29.16,North,0,3.5,3.5,45,0.00,CLR,,0.00,WeatherDisplay:10.37,2013-08-03 15:43:00,
2013-08-03 10:48:00,75.6,50.2,29.16,WNW,292,11.5,11.5,41,0.00,CLR,,0.00,WeatherDisplay:10.37,2013-08-03 15:48:00,
2013-08-03 10:53:00,74.5,49.9,29.16,NW,315,9.2,9.2,42,0.00,CLR,,0.00,WeatherDisplay:10.37,2013-08-03 15:53:00,
2013-08-03 10:58:00,75.0,51.0,29.16,WNW,292,9.2,9.2,43,0.00,CLR,,0.00,WeatherDisplay:10.37,2013-08-03 15:58:00,
2013-08-03 11:03:00,75.7,51.6,29.16,North,0,9.2,9.2,43,0.00,CLR,,0.00,WeatherDisplay:10.37,2013-08-03 16:03:00,
2013-08-03 11:08:00,76.8,52.0,29.16,SW,225,8.1,8.1,42,0.00,CLR,,0.00,WeatherDisplay:10.37,2013-08-03 16:08:00,
2013-08-03 11:13:00,77.7,51.5,29.16,NW,315,8.1,8.1,40,0.00,CLR,,0.00,WeatherDisplay:10.37,2013-08-03 16:13:00,
2013-08-03 11:18:00,78.1,50.4,29.16,North,0,11.5,11.5,38,0.00,CLR,,0.00,WeatherDisplay:10.37,2013-08-03 16:18:00,
2013-08-03 11:23:00,76.5,50.3,29.16,North,0,12.7,12.7,40,0.00,CLR,,0.00,WeatherDisplay:10.37,2013-08-03 16:23:00,
2013-08-03 11:28:00,77.5,49.9,29.16,WNW,292,9.2,9.2,38,0.00,CLR,,0.00,WeatherDisplay:10.37,2013-08-03 16:28:00,
2013-08-03 11:33:00,76.8,50.0,29.16,North,0,11.5,11.5,39,0.00,CLR,,0.00,WeatherDisplay:10.37,2013-08-03 16:33:00,
2013-08-03 11:38:00,76.5,49.7,29.16,NW,315,8.1,8.1,39,0.00,CLR,,0.00,WeatherDisplay:10.37,2013-08-03 16:38:00,
2013-08-03 11:43:00,77.2,50.3,29.17,North,0,6.9,6.9,39,0.00,CLR,,0.00,WeatherDisplay:10.37,2013-08-03 16:43:00,
2013-08-03 11:48:00,75.0,50.4,29.16,NE,45,13.8,13.8,42,0.00,CLR,,0.00,WeatherDisplay:10.37,2013-08-03 16:48:00,
2013-08-03 11:53:00,75.9,50.5,29.16,North,0,11.5,11.5,41,0.00,CLR,,0.00,WeatherDisplay:10.37,2013-08-03 16:53:00,
2013-08-03 11:58:00,76.1,49.3,29.17,NW,315,11.5,11.5,39,0.00,CLR,,0.00,WeatherDisplay:10.37,2013-08-03 16:58:00,
2013-08-03 12:03:00,76.5,51.0,29.17,NW,315,9.2,9.2,41,0.00,CLR,,0.00,WeatherDisplay:10.37,2013-08-03 17:03:00,
2013-08-03 12:08:00,76.8,50.0,29.16,NW,315,6.9,6.9,39,0.00,CLR,,0.00,WeatherDisplay:10.37,2013-08-03 17:08:00,
2013-08-03 12:13:00,75.9,49.2,29.17,North,0,8.1,8.1,39,0.00,CLR,,0.00,WeatherDisplay:10.37,2013-08-03 17:13:00,
2013-08-03 12:18:00,75.4,50.7,29.17,North,0,8.1,8.1,42,0.00,CLR,,0.00,WeatherDisplay:10.37,2013-08-03 17:18:00,
2013-08-03 12:23:00,73.9,50.0,29.17,North,0,8.1,8.1,43,0.00,CLR,,0.00,WeatherDisplay:10.37,2013-08-03 17:23:00,
2013-08-03 12:28:00,73.6,50.9,29.17,NW,315,8.1,8.1,45,0.00,CLR,,0.00,WeatherDisplay:10.37,2013-08-03 17:28:00,
2013-08-03 12:33:00,74.5,49.9,29.17,NW,315,8.1,8.1,42,0.00,CLR,,0.00,WeatherDisplay:10.37,2013-08-03 17:33:00,
2013-08-03 12:38:00,74.8,50.2,29.16,North,0,7.6,7.6,42,0.00,CLR,,0.00,WeatherDisplay:10.37,2013-08-03 17:38:00,
2013-08-03 12:43:00,74.1,48.9,29.16,NW,315,12.7,12.7,41,0.00,CLR,,0.00,WeatherDisplay:10.37,2013-08-03 17:43:00,
2013-08-03 12:48:00,74.3,49.7,29.16,North,0,8.1,8.1,42,0.00,CLR,,0.00,WeatherDisplay:10.37,2013-08-03 17:48:00,
2013-08-03 12:53:00,76.3,49.5,29.16,NW,315,5.8,5.8,39,0.00,CLR,,0.00,WeatherDisplay:10.37,2013-08-03 17:53:00,
2013-08-03 12:58:00,75.7,46.9,29.16,North,0,6.9,7.6,36,0.00,CLR,,0.00,WeatherDisplay:10.37,2013-08-03 17:58:00,
2013-08-03 13:03:00,75.4,48.7,29.16,North,0,8.1,8.1,39,0.00,CLR,,0.00,WeatherDisplay:10.37,2013-08-03 18:03:00,
2013-08-03 13:08:00,75.6,46.7,29.16,NW,315,12.7,12.7,36,0.00,CLR,,0.00,WeatherDisplay:10.37,2013-08-03 18:08:00,
2013-08-03 13:13:00,76.6,46.2,29.16,NE,45,12.7,12.7,34,0.00,CLR,,0.00,WeatherDisplay:10.37,2013-08-03 18:13:00,
2013-08-03 13:18:00,76.8,46.3,29.16,North,0,15.0,15.0,34,0.00,CLR,,0.00,WeatherDisplay:10.37,2013-08-03 18:18:00,
2013-08-03 13:23:00,76.3,45.8,29.16,NW,315,16.1,16.1,34,0.00,CLR,,0.00,WeatherDisplay:10.37,2013-08-03 18:23:00,
2013-08-03 13:28:00,75.6,46.0,29.16,North,0,10.4,10.4,35,0.00,CLR,,0.00,WeatherDisplay:10.37,2013-08-03 18:28:00,
2013-08-03 13:33:00,76.8,46.3,29.17,North,0,9.2,9.2,34,0.00,CLR,,0.00,WeatherDisplay:10.37,2013-08-03 18:33:00,
2013-08-03 13:38:00,79.2,46.8,29.16,North,0,5.8,5.8,32,0.00,CLR,,0.00,WeatherDisplay:10.37,2013-08-03 18:38:00,
2013-08-03 13:43:00,79.7,45.5,29.16,NW,315,9.2,9.2,30,0.00,CLR,,0.00,WeatherDisplay:10.37,2013-08-03 18:43:00,
2013-08-03 13:48:00,78.6,47.1,29.16,North,0,10.4,10.4,33,0.00,CLR,,0.00,WeatherDisplay:10.37,2013-08-03 18:48:00,
2013-08-03 13:53:00,78.1,47.4,29.16,North,0,11.5,11.5,34,0.00,CLR,,0.00,WeatherDisplay:10.37,2013-08-03 18:53:00,
2013-08-03 13:58:00,78.1,46.6,29.16,NW,315,9.2,9.2,33,0.00,CLR,,0.00,WeatherDisplay:10.37,2013-08-03 18:58:00,
2013-08-03 14:03:00,78.6,46.3,29.16,NW,315,8.1,8.1,32,0.00,CLR,,0.00,WeatherDisplay:10.37,2013-08-03 19:03:00,
2013-08-03 14:08:00,79.3,46.9,29.16,SW,225,5.8,5.8,32,0.00,CLR,,0.00,WeatherDisplay:10.37,2013-08-03 19:08:00,
2013-08-03 14:13:00,78.6,45.4,29.16,NW,315,5.8,5.8,31,0.00,CLR,,0.00,WeatherDisplay:10.37,2013-08-03 19:13:00,
2013-08-03 14:18:00,78.1,45.8,29.16,North,0,11.5,11.5,32,0.00,CLR,,0.00,WeatherDisplay:10.37,2013-08-03 19:18:00,
2013-08-03 14:23:00,78.1,45.8,29.16,NW,315,13.8,13.8,32,0.00,CLR,,0.00,WeatherDisplay:10.37,2013-08-03 19:23:00,
2013-08-03 14:28:00,77.2,45.0,29.16,NW,315,10.4,10.4,32,0.00,CLR,,0.00,WeatherDisplay:10.37,2013-08-03 19:28:00,
2013-08-03 14:33:00,77.7,47.9,29.16,NW,315,8.1,8.1,35,0.00,CLR,,0.00,WeatherDisplay:10.37,2013-08-03 19:33:00,
2013-08-03 14:38:00,78.8,47.3,29.16,NW,315,10.4,10.4,33,0.00,CLR,,0.00,WeatherDisplay:10.37,2013-08-03 19:38:00,
2013-08-03 14:43:00,78.6,47.9,29.16,North,0,13.8,13.8,34,0.00,CLR,,0.00,WeatherDisplay:10.37,2013-08-03 19:43:00,
2013-08-03 14:48:00,76.5,47.5,29.17,North,0,12.7,12.7,36,0.00,CLR,,0.00,WeatherDisplay:10.37,2013-08-03 19:48:00,
2013-08-03 14:53:00,76.8,48.6,29.17,North,0,9.2,9.2,37,0.00,CLR,,0.00,WeatherDisplay:10.37,2013-08-03 19:53:00,
2013-08-03 14:58:00,77.4,49.0,29.17,NW,315,11.5,11.5,37,0.00,CLR,,0.00,WeatherDisplay:10.37,2013-08-03 19:58:00,
2013-08-03 15:03:00,77.7,49.4,29.16,NW,315,8.1,8.1,37,0.00,CLR,,0.00,WeatherDisplay:10.37,2013-08-03 20:03:00,
2013-08-03 15:08:00,77.7,47.9,29.16,North,0,8.1,8.3,35,0.00,CLR,,0.00,WeatherDisplay:10.37,2013-08-03 20:08:00,
2013-08-03 15:13:00,77.5,46.9,29.16,North,0,10.4,10.4,34,0.00,CLR,,0.00,WeatherDisplay:10.37,2013-08-03 20:13:00,
2013-08-03 15:18:00,79.2,48.4,29.16,NW,315,4.6,4.6,34,0.00,CLR,,0.00,WeatherDisplay:10.37,2013-08-03 20:18:00,
2013-08-03 15:23:00,79.7,47.2,29.16,NNW,338,5.8,5.8,32,0.00,CLR,,0.00,WeatherDisplay:10.37,2013-08-03 20:23:00,
2013-08-03 15:28:00,79.0,46.6,29.16,North,0,13.7,13.7,32,0.00,CLR,,0.00,WeatherDisplay:10.37,2013-08-03 20:28:00,
2013-08-03 15:33:00,77.7,48.6,29.16,South,180,10.4,10.4,36,0.00,CLR,,0.00,WeatherDisplay:10.37,2013-08-03 20:33:00,
2013-08-03 15:38:00,78.4,47.7,29.16,North,0,10.4,10.4,34,0.00,CLR,,0.00,WeatherDisplay:10.37,2013-08-03 20:38:00,
2013-08-03 15:43:00,80.2,48.5,29.15,North,0,5.8,5.8,33,0.00,CLR,,0.00,WeatherDisplay:10.37,2013-08-03 20:43:00,
2013-08-03 15:48:00,80.1,47.5,29.15,NE,45,8.1,8.1,32,0.00,CLR,,0.00,WeatherDisplay:10.37,2013-08-03 20:48:00,
2013-08-03 15:53:00,80.6,47.2,29.16,NW,315,6.0,6.0,31,0.00,CLR,,0.00,WeatherDisplay:10.37,2013-08-03 20:53:00,
2013-08-03 15:58:00,79.5,47.1,29.16,North,0,15.0,15.0,32,0.00,CLR,,0.00,WeatherDisplay:10.37,2013-08-03 20:58:00,
2013-08-03 16:03:00,79.3,47.7,29.16,North,0,10.4,10.4,33,0.00,CLR,,0.00,WeatherDisplay:10.37,2013-08-03 21:03:00,
2013-08-03 16:08:00,79.7,48.0,29.16,NE,45,5.8,5.8,33,0.00,CLR,,0.00,WeatherDisplay:10.37,2013-08-03 21:08:00,
2013-08-03 16:13:00,80.4,48.7,29.16,North,0,3.5,3.5,33,0.00,CLR,,0.00,WeatherDisplay:10.37,2013-08-03 21:13:00,
2013-08-03 16:18:00,82.8,48.2,29.16,NW,315,6.9,6.9,30,0.00,CLR,,0.00,WeatherDisplay:10.37,2013-08-03 21:18:00,
2013-08-03 16:23:00,81.1,46.8,29.16,North,0,12.7,12.7,30,0.00,CLR,,0.00,WeatherDisplay:10.37,2013-08-03 21:23:00,
2013-08-03 16:28:00,80.1,47.5,29.16,NW,315,10.4,10.4,32,0.00,CLR,,0.00,WeatherDisplay:10.37,2013-08-03 21:28:00,
2013-08-03 16:33:00,79.2,47.6,29.16,North,0,9.2,9.2,33,0.00,CLR,,0.00,WeatherDisplay:10.37,2013-08-03 21:33:00,
2013-08-03 16:38:00,79.2,45.9,29.15,North,0,8.1,8.1,31,0.00,CLR,,0.00,WeatherDisplay:10.37,2013-08-03 21:38:00,
2013-08-03 16:43:00,79.0,47.4,29.16,North,0,12.7,12.7,33,0.00,CLR,,0.00,WeatherDisplay:10.37,2013-08-03 21:43:00,
2013-08-03 16:48:00,78.3,46.8,29.15,NW,315,9.2,9.2,33,0.00,CLR,,0.00,WeatherDisplay:10.37,2013-08-03 21:48:00,
2013-08-03 16:53:00,77.4,47.6,29.16,North,0,10.4,10.4,35,0.00,CLR,,0.00,WeatherDisplay:10.37,2013-08-03 21:53:00,
2013-08-03 16:58:00,78.1,48.2,29.16,North,0,6.9,6.9,35,0.00,CLR,,0.00,WeatherDisplay:10.37,2013-08-03 21:58:00,
2013-08-03 17:03:00,77.7,47.9,29.15,NW,315,8.1,8.1,35,0.00,CLR,,0.00,WeatherDisplay:10.37,2013-08-03 22:03:00,
2013-08-03 17:08:00,78.8,48.1,29.15,North,0,12.7,12.7,34,0.00,CLR,,0.00,WeatherDisplay:10.37,2013-08-03 22:08:00,
2013-08-03 17:13:00,79.7,48.0,29.16,East,90,15.0,15.0,33,0.00,CLR,,0.00,WeatherDisplay:10.37,2013-08-03 22:13:00,
2013-08-03 17:18:00,81.1,48.5,29.15,NE,45,5.8,5.8,32,0.00,CLR,,0.00,WeatherDisplay:10.37,2013-08-03 22:18:00,
2013-08-03 17:23:00,80.6,48.0,29.15,North,0,8.1,8.1,32,0.00,CLR,,0.00,WeatherDisplay:10.37,2013-08-03 22:23:00,
2013-08-03 17:28:00,80.1,47.5,29.16,North,0,10.4,10.4,32,0.00,CLR,,0.00,WeatherDisplay:10.37,2013-08-03 22:28:00,
2013-08-03 17:33:00,78.6,47.9,29.15,NE,45,4.6,4.6,34,0.00,CLR,,0.00,WeatherDisplay:10.37,2013-08-03 22:33:00,
2013-08-03 17:38:00,79.2,49.1,29.15,West,270,3.5,3.5,35,0.00,CLR,,0.00,WeatherDisplay:10.37,2013-08-03 22:38:00,
2013-08-03 17:43:00,79.2,48.4,29.15,NW,315,4.6,4.6,34,0.00,CLR,,0.00,WeatherDisplay:10.37,2013-08-03 22:43:00,
2013-08-03 17:48:00,79.0,49.0,29.16,North,0,4.6,4.6,35,0.00,CLR,,0.00,WeatherDisplay:10.37,2013-08-03 22:48:00,
2013-08-03 17:53:00,78.3,49.1,29.16,NW,315,4.6,4.6,36,0.00,CLR,,0.00,WeatherDisplay:10.37,2013-08-03 22:53:00,
2013-08-03 17:58:00,77.0,50.1,29.16,NW,315,4.6,4.6,39,0.00,CLR,,0.00,WeatherDisplay:10.37,2013-08-03 22:58:00,
2013-08-03 18:03:00,77.0,50.1,29.16,SE,135,2.3,2.3,39,0.00,CLR,,0.00,WeatherDisplay:10.37,2013-08-03 23:03:00,
2013-08-03 18:08:00,76.8,50.7,29.16,NE,45,3.5,3.5,40,0.00,CLR,,0.00,WeatherDisplay:10.37,2013-08-03 23:08:00,
2013-08-03 18:13:00,76.5,51.0,29.16,NW,315,3.5,3.5,41,0.00,CLR,,0.00,WeatherDisplay:10.37,2013-08-03 23:13:00,
2013-08-03 18:18:00,75.7,51.0,29.16,NW,315,5.8,5.8,42,0.00,CLR,,0.00,WeatherDisplay:10.37,2013-08-03 23:18:00,
2013-08-03 18:23:00,78.4,52.1,29.16,North,0,5.8,5.8,40,0.00,CLR,,0.00,WeatherDisplay:10.37,2013-08-03 23:23:00,
2013-08-03 18:28:00,78.4,49.3,29.15,North,0,8.1,8.1,36,0.00,CLR,,0.00,WeatherDisplay:10.37,2013-08-03 23:28:00,
2013-08-03 18:33:00,76.1,50.0,29.15,North,0,6.9,6.9,40,0.00,CLR,,0.00,WeatherDisplay:10.37,2013-08-03 23:33:00,
2013-08-03 18:38:00,76.5,50.3,29.15,North,0,5.8,5.8,40,0.00,CLR,,0.00,WeatherDisplay:10.37,2013-08-03 23:38:00,
2013-08-03 18:43:00,76.5,50.3,29.15,NW,315,5.8,5.8,40,0.00,CLR,,0.00,WeatherDisplay:10.37,2013-08-03 23:43:00,
2013-08-03 18:48:00,77.5,49.9,29.16,NE,45,3.5,3.5,38,0.00,CLR,,0.00,WeatherDisplay:10.37,2013-08-03 23:48:00,
2013-08-03 18:53:00,79.7,49.6,29.15,WNW,292,4.6,4.6,35,0.00,CLR,,0.00,WeatherDisplay:10.37,2013-08-03 23:53:00,
2013-08-03 18:58:00,79.9,49.0,29.16,NW,315,5.8,5.8,34,0.00,CLR,,0.00,WeatherDisplay:10.37,2013-08-03 23:58:00,
2013-08-03 19:03:00,80.1,49.2,29.15,NW,315,4.6,4.6,34,0.00,CLR,,0.00,WeatherDisplay:10.37,2013-08-04 00:03:00,
2013-08-03 19:08:00,79.9,48.2,29.15,NW,315,3.5,3.5,33,0.00,CLR,,0.00,WeatherDisplay:10.37,2013-08-04 00:08:00,
2013-08-03 19:13:00,80.1,49.2,29.15,SSE,158,4.6,4.6,34,0.00,CLR,,0.00,WeatherDisplay:10.37,2013-08-04 00:13:00,
2013-08-03 19:18:00,80.6,48.8,29.15,NNW,338,4.6,4.6,33,0.00,CLR,,0.00,WeatherDisplay:10.37,2013-08-04 00:18:00,
2013-08-03 19:23:00,79.2,48.4,29.15,NW,315,5.8,5.8,34,0.00,CLR,,0.00,WeatherDisplay:10.37,2013-08-04 00:23:00,
2013-08-03 19:28:00,77.0,48.7,29.15,North,0,3.5,3.5,37,0.00,CLR,,0.00,WeatherDisplay:10.37,2013-08-04 00:28:00,
2013-08-03 19:33:00,75.2,49.2,29.15,North,0,4.6,4.6,40,0.00,CLR,,0.00,WeatherDisplay:10.37,2013-08-04 00:33:00,
2013-08-03 19:38:00,74.5,49.9,29.16,SE,135,1.1,1.1,42,0.00,CLR,,0.00,WeatherDisplay:10.37,2013-08-04 00:38:00,
2013-08-03 19:43:00,75.0,51.0,29.16,NNW,338,2.3,2.3,43,0.00,CLR,,0.00,WeatherDisplay:10.37,2013-08-04 00:43:00,
2013-08-03 19:48:00,75.9,51.8,29.16,NE,45,3.5,3.5,43,0.00,CLR,,0.00,WeatherDisplay:10.37,2013-08-04 00:48:00,
2013-08-03 19:53:00,76.3,51.5,29.16,NE,45,3.5,3.5,42,0.00,CLR,,0.00,WeatherDisplay:10.37,2013-08-04 00:53:00,
2013-08-03 19:58:00,75.2,51.2,29.16,SE,135,2.3,0.0,43,0.00,CLR,,0.00,WeatherDisplay:10.37,2013-08-04 00:58:00,
2013-08-03 20:03:00,74.5,51.1,29.16,East,90,2.3,0.0,44,0.00,CLR,,0.00,WeatherDisplay:10.37,2013-08-04 01:03:00,
2013-08-03 20:08:00,73.8,51.1,29.16,NE,45,1.1,1.1,45,0.00,CLR,,0.00,WeatherDisplay:10.37,2013-08-04 01:08:00,
2013-08-03 20:13:00,72.7,50.7,29.15,NW,315,2.3,0.0,46,0.00,CLR,,0.00,WeatherDisplay:10.37,2013-08-04 01:13:00,
2013-08-03 20:18:00,72.0,50.6,29.16,NW,315,3.5,3.5,47,0.00,CLR,,0.00,WeatherDisplay:10.37,2013-08-04 01:18:00,
2013-08-03 20:23:00,71.2,51.1,29.16,North,0,3.5,3.5,49,0.00,CLR,,0.00,WeatherDisplay:10.37,2013-08-04 01:23:00,
2013-08-03 20:28:00,70.7,50.6,29.16,North,0,3.5,3.5,49,0.00,CLR,,0.00,WeatherDisplay:10.37,2013-08-04 01:28:00,
2013-08-03 20:33:00,70.0,50.5,29.16,North,0,2.3,0.0,50,0.00,CLR,,0.00,WeatherDisplay:10.37,2013-08-04 01:33:00,
2013-08-03 20:38:00,69.6,50.7,29.16,North,0,3.1,3.1,51,0.00,CLR,,0.00,WeatherDisplay:10.37,2013-08-04 01:38:00,
2013-08-03 20:43:00,69.3,50.4,29.16,NW,315,2.3,2.3,51,0.00,CLR,,0.00,WeatherDisplay:10.37,2013-08-04 01:43:00,
2013-08-03 20:48:00,68.7,50.4,29.16,South,180,1.1,0.0,52,0.00,CLR,,0.00,WeatherDisplay:10.37,2013-08-04 01:48:00,
2013-08-03 20:53:00,68.4,50.6,29.16,SE,135,1.1,0.0,53,0.00,CLR,,0.00,WeatherDisplay:10.37,2013-08-04 01:53:00,
2013-08-03 20:58:00,68.0,50.2,29.16,East,90,1.1,0.0,53,0.00,CLR,,0.00,WeatherDisplay:10.37,2013-08-04 01:58:00,
2013-08-03 21:03:00,67.5,50.7,29.17,NE,45,1.6,0.0,55,0.00,CLR,,0.00,WeatherDisplay:10.37,2013-08-04 02:03:00,
2013-08-03 21:08:00,67.5,51.2,29.17,NNE,22,2.3,2.3,56,0.00,CLR,,0.00,WeatherDisplay:10.37,2013-08-04 02:08:00,
2013-08-03 21:13:00,67.1,51.4,29.17,NE,45,2.3,2.3,57,0.00,CLR,,0.00,WeatherDisplay:10.37,2013-08-04 02:13:00,
2013-08-03 21:18:00,66.7,52.0,29.18,North,0,2.3,2.3,59,0.00,CLR,,0.00,WeatherDisplay:10.37,2013-08-04 02:18:00,
2013-08-03 21:23:00,66.6,51.8,29.18,West,270,1.1,0.0,59,0.00,CLR,,0.00,WeatherDisplay:10.37,2013-08-04 02:23:00,
2013-08-03 21:28:00,66.2,52.3,29.18,NW,315,3.5,3.5,61,0.00,CLR,,0.00,WeatherDisplay:10.37,2013-08-04 02:28:00,
2013-08-03 21:33:00,65.8,52.9,29.18,NW,315,2.3,2.3,63,0.00,CLR,,0.00,WeatherDisplay:10.37,2013-08-04 02:33:00,
2013-08-03 21:38:00,65.5,52.1,29.18,NE,45,2.3,2.3,62,0.00,CLR,,0.00,WeatherDisplay:10.37,2013-08-04 02:38:00,
2013-08-03 21:43:00,66.6,53.6,29.18,North,0,1.1,0.0,63,0.00,CLR,,0.00,WeatherDisplay:10.37,2013-08-04 02:43:00,
2013-08-03 21:48:00,65.8,53.7,29.18,ENE,68,2.3,2.3,65,0.00,CLR,,0.00,WeatherDisplay:10.37,2013-08-04 02:48:00,
2013-08-03 21:53:00,65.3,53.6,29.18,North,0,2.3,0.0,66,0.00,CLR,,0.00,WeatherDisplay:10.37,2013-08-04 02:53:00,
2013-08-03 21:58:00,65.1,53.9,29.19,North,0,2.3,2.3,67,0.00,CLR,,0.00,WeatherDisplay:10.37,2013-08-04 02:58:00,
2013-08-03 22:03:00,64.9,53.7,29.19,North,0,1.1,0.0,67,0.00,CLR,,0.00,WeatherDisplay:10.37,2013-08-04 03:03:00,
2013-08-03 22:08:00,64.9,53.7,29.19,North,0,1.1,1.1,67,0.00,CLR,,0.00,WeatherDisplay:10.37,2013-08-04 03:08:00,
2013-08-03 22:13:00,62.4,51.7,29.19,North,0,2.3,2.3,68,0.00,CLR,,0.00,WeatherDisplay:10.37,2013-08-04 03:13:00,
2013-08-03 22:18:00,62.2,51.9,29.18,North,0,2.3,2.3,69,0.00,CLR,,0.00,WeatherDisplay:10.37,2013-08-04 03:18:00,
2013-08-03 22:23:00,62.1,52.2,29.19,NE,45,1.1,1.1,70,0.00,CLR,,0.00,WeatherDisplay:10.37,2013-08-04 03:23:00,
2013-08-03 22:28:00,61.9,52.0,29.19,North,0,1.1,0.0,70,0.00,CLR,,0.00,WeatherDisplay:10.37,2013-08-04 03:28:00,
2013-08-03 22:33:00,61.7,53.0,29.18,SE,135,1.1,0.0,73,0.00,CLR,,0.00,WeatherDisplay:10.37,2013-08-04 03:33:00,
2013-08-03 22:38:00,63.1,54.0,29.19,SE,135,1.1,1.1,72,0.00,CLR,,0.00,WeatherDisplay:10.37,2013-08-04 03:38:00,
2013-08-03 22:43:00,66.2,55.7,29.19,North,3,1.6,0.0,69,0.00,CLR,,0.00,WeatherDisplay:10.37,2013-08-04 03:43:00,
2013-08-03 22:48:00,66.2,54.5,29.19,North,0,1.1,1.1,66,0.00,CLR,,0.00,WeatherDisplay:10.37,2013-08-04 03:48:00,
2013-08-03 22:53:00,65.3,54.1,29.20,North,0,2.3,2.3,67,0.00,CLR,,0.00,WeatherDisplay:10.37,2013-08-04 03:53:00,
2013-08-03 22:58:00,62.2,51.9,29.20,North,0,1.1,1.1,69,0.00,CLR,,0.00,WeatherDisplay:10.37,2013-08-04 03:58:00,
2013-08-03 23:01:00,61.9,52.0,29.20,NE,45,2.3,2.3,70,0.00,CLR,,0.00,WeatherDisplay:10.37,2013-08-04 04:01:00,
2013-08-03 23:06:00,61.9,52.0,29.20,NE,45,2.3,2.3,70,0.00,CLR,,0.00,WeatherDisplay:10.37,2013-08-04 04:06:00,
2013-08-03 23:12:00,60.1,51.8,29.21,North,0,1.6,1.6,74,0.00,CLR,,0.00,WeatherDisplay:10.37,2013-08-04 04:12:00,
2013-08-03 23:17:00,59.5,51.6,29.20,North,0,1.1,0.0,75,0.00,CLR,,0.00,WeatherDisplay:10.37,2013-08-04 04:17:00,
2013-08-03 23:22:00,59.0,51.4,29.20,North,0,1.1,0.0,76,0.00,CLR,,0.00,WeatherDisplay:10.37,2013-08-04 04:22:00,
2013-08-03 23:27:00,58.5,51.3,29.21,North,0,1.1,1.1,77,0.00,CLR,,0.00,WeatherDisplay:10.37,2013-08-04 04:27:00,
2013-08-03 23:32:00,57.9,51.8,29.20,North,0,1.1,1.1,80,0.00,CLR,,0.00,WeatherDisplay:10.37,2013-08-04 04:32:00,
2013-08-03 23:37:00,57.6,51.8,29.21,North,0,1.1,1.1,81,0.00,CLR,,0.00,WeatherDisplay:10.37,2013-08-04 04:37:00,
2013-08-03 23:42:00,57.0,51.2,29.21,North,0,1.1,0.0,81,0.00,CLR,,0.00,WeatherDisplay:10.37,2013-08-04 04:42:00,
2013-08-03 23:47:00,56.8,51.4,29.21,North,0,1.1,1.1,82,0.00,CLR,,0.00,WeatherDisplay:10.37,2013-08-04 04:47:00,
2013-08-03 23:52:00,56.7,51.6,29.22,North,0,1.1,1.1,83,0.00,CLR,,0.00,WeatherDisplay:10.37,2013-08-04 04:52:00,
2013-08-03 23:57:00,56.5,51.4,29.22,North,0,1.1,0.0,83,0.00,CLR,,0.00,WeatherDisplay:10.37,2013-08-04 04:57:00,